STARLINK-1219 (45210 NORAD) Tracking and Keplerian Element Data

This shows tracking and keplerian element data for the satellite.

Feedback or suggestion? Click here.




ElementValue
Catalog45210
NameSTARLINK-1219
Epoch Orbit751
Epoch Day94.25001157
Epoch Year2020
RAAN42.9134
Inclination52.9969
Eccentricity0.0008552
Argument of Perigee319.6042
Mean Anonmoly141.9514
Mean Motion15.62746962
Decay Rate0.00034174
L11 45210U 20012AJ 20094.25001157 .00034174 00000-0 37700-3 0 9992
L22 45210 52.9969 42.9134 0008552 319.6042 141.9514 15.62746962 7518

Live tracking and technical data element details for STARLINK-1219 (NORAD 45210). STARLINK-1219 can be tracked NOW for your location showing map with azimuth and elevation plus other details from your city location.

Track the satellite on the map from your city or location and see movement details for azimuth, elevation, latitude, longitude, range, height, and movement on the map or in text.







IsCatalogInMostPopularTable: catalog: 45210, numindb: 5
Update: records affected: 1



GetName: 45210 STARLINK-1219

Hit Count: updated at: Mon, 06 Apr 2020 12:26:28 GMT